• en France
  • Liste des pays
  • À 7 jours
  • Température de l'eau
  • Carte satellitaire
  • Carte météo
  • Widgets météo
  • user-avatar
    Se connecter

    Météo par heure à Pecz

    Ce jour, 20 Novembre, Lundi

    Heure Température Précipitation Vent Pression Humidité
    00:00 +2°C° 0 mm 2 m/s 743 mmHg 80%
    01:00 +1°C° 0 mm 2 m/s 743 mmHg 81%
    02:00 +1°C° 0 mm 2 m/s 743 mmHg 82%
    03:00 0°C° 0 mm 3 m/s 744 mmHg 83%
    04:00 0°C° 0 mm 3 m/s 744 mmHg 84%
    05:00 +1°C° 0 mm 3 m/s 744 mmHg 84%
    06:00 0°C° 0 mm 4 m/s 744 mmHg 84%
    07:00 0°C° 0 mm 3 m/s 744 mmHg 86%
    08:00 0°C° 0,1 mm 4 m/s 745 mmHg 80%
    09:00 +3°C° 0,1 mm 4 m/s 745 mmHg 73%
    10:00 +4°C° 0,1 mm 4 m/s 745 mmHg 67%
    11:00 +5°C° 0 mm 4 m/s 745 mmHg 61%
    12:00 +6°C° 0 mm 4 m/s 745 mmHg 55%
    13:00 +7°C° 0 mm 4 m/s 745 mmHg 49%
    14:00 +6°C° 0 mm 4 m/s 745 mmHg 52%
    15:00 +5°C° 0 mm 3 m/s 745 mmHg 55%
    16:00 +5°C° 0 mm 2 m/s 745 mmHg 58%
    17:00 +5°C° 0 mm 2 m/s 745 mmHg 60%
    18:00 +4°C° 0 mm 2 m/s 745 mmHg 62%
    19:00 +4°C° 0 mm 2 m/s 745 mmHg 64%
    20:00 +4°C° 0 mm 2 m/s 745 mmHg 64%
    21:00 +4°C° 0 mm 2 m/s 746 mmHg 65%
    22:00 +4°C° 0 mm 2 m/s 746 mmHg 65%
    23:00 +4°C° 0 mm 2 m/s 746 mmHg 65%

    Demain, 21 Novembre, Mardi

    Heure Température Précipitation Vent Pression Humidité
    00:00 +4°C° 0 mm 2 m/s 745 mmHg 65%
    01:00 +4°C° 0 mm 2 m/s 745 mmHg 65%
    02:00 +4°C° 0 mm 2 m/s 745 mmHg 64%
    03:00 +3°C° 0 mm 2 m/s 744 mmHg 64%
    04:00 +2°C° 0 mm 3 m/s 744 mmHg 63%
    05:00 +2°C° 0,1 mm 3 m/s 744 mmHg 64%
    06:00 +3°C° 0,1 mm 3 m/s 744 mmHg 65%
    07:00 +3°C° 0,1 mm 3 m/s 743 mmHg 66%
    08:00 +3°C° 0 mm 3 m/s 743 mmHg 65%
    09:00 +4°C° 0 mm 3 m/s 743 mmHg 64%
    10:00 +5°C° 0 mm 4 m/s 744 mmHg 64%
    11:00 +6°C° 0 mm 4 m/s 743 mmHg 63%
    12:00 +7°C° 0 mm 4 m/s 743 mmHg 62%
    13:00 +8°C° 0 mm 4 m/s 743 mmHg 62%
    14:00 +9°C° 0,1 mm 3 m/s 743 mmHg 65%
    15:00 +9°C° 0,1 mm 3 m/s 743 mmHg 68%
    16:00 +8°C° 0,1 mm 3 m/s 743 mmHg 72%
    17:00 +8°C° 0 mm 3 m/s 743 mmHg 74%
    18:00 +8°C° 0 mm 3 m/s 743 mmHg 76%
    19:00 +7°C° 0 mm 3 m/s 744 mmHg 79%
    20:00 +7°C° 0 mm 3 m/s 744 mmHg 80%
    21:00 +7°C° 0 mm 3 m/s 744 mmHg 81%
    22:00 +7°C° 0 mm 3 m/s 744 mmHg 83%
    23:00 +7°C° 0 mm 3 m/s 744 mmHg 83%

    Après-demain, 22 Novembre, Mercredi

    Heure Température Précipitation Vent Pression Humidité
    00:00 +7°C° 0 mm 3 m/s 744 mmHg 83%
    01:00 +7°C° 0 mm 3 m/s 744 mmHg 83%
    02:00 +7°C° 0 mm 3 m/s 744 mmHg 84%
    03:00 +7°C° 0 mm 3 m/s 744 mmHg 84%
    04:00 +7°C° 0 mm 3 m/s 744 mmHg 84%
    05:00 +5°C° 0 mm 3 m/s 744 mmHg 86%
    06:00 +5°C° 0 mm 3 m/s 744 mmHg 87%
    07:00 +5°C° 0 mm 3 m/s 744 mmHg 89%
    08:00 +7°C° 0 mm 3 m/s 744 mmHg 82%
    09:00 +8°C° 0 mm 4 m/s 745 mmHg 76%
    10:00 +10°C° 0 mm 4 m/s 745 mmHg 70%
    11:00 +11°C° 0 mm 4 m/s 745 mmHg 67%
    12:00 +12°C° 0 mm 4 m/s 744 mmHg 63%
    13:00 +13°C° 0 mm 5 m/s 744 mmHg 59%
    14:00 +13°C° 0 mm 4 m/s 744 mmHg 64%
    15:00 +12°C° 0 mm 3 m/s 744 mmHg 68%
    16:00 +11°C° 0 mm 3 m/s 744 mmHg 73%
    17:00 +10°C° 0 mm 3 m/s 744 mmHg 76%
    18:00 +10°C° 0 mm 3 m/s 744 mmHg 78%
    19:00 +9°C° 0 mm 3 m/s 744 mmHg 81%
    20:00 +9°C° 0 mm 3 m/s 744 mmHg 82%
    21:00 +9°C° 0 mm 3 m/s 744 mmHg 83%
    22:00 +8°C° 0 mm 3 m/s 744 mmHg 83%
    23:00 +8°C° 0 mm 3 m/s 744 mmHg 84%

    23 Novembre, Jeudi

    Heure Température Précipitation Vent Pression Humidité
    00:00 +8°C° 0 mm 3 m/s 744 mmHg 85%
    01:00 +8°C° 0 mm 3 m/s 744 mmHg 85%
    02:00 +7°C° 0 mm 3 m/s 744 mmHg 86%
    03:00 +7°C° 0 mm 3 m/s 744 mmHg 86%
    04:00 +7°C° 0 mm 3 m/s 744 mmHg 87%
    05:00 +7°C° 0 mm 3 m/s 744 mmHg 87%
    06:00 +7°C° 0 mm 3 m/s 744 mmHg 87%
    07:00 +7°C° 0 mm 3 m/s 745 mmHg 86%
    08:00 +7°C° 0 mm 4 m/s 745 mmHg 79%
    09:00 +10°C° 0 mm 4 m/s 745 mmHg 72%
    10:00 +10°C° 0 mm 5 m/s 746 mmHg 65%
    11:00 +12°C° 0 mm 5 m/s 746 mmHg 63%
    12:00 +13°C° 0 mm 5 m/s 746 mmHg 60%
    13:00 +14°C° 0 mm 5 m/s 746 mmHg 58%
    14:00 +13°C° 0 mm 4 m/s 746 mmHg 62%
    15:00 +12°C° 0 mm 3 m/s 746 mmHg 66%
    16:00 +12°C° 0 mm 2 m/s 746 mmHg 71%
    17:00 +12°C° 0 mm 2 m/s 747 mmHg 73%
    18:00 +10°C° 0 mm 2 m/s 747 mmHg 75%
    19:00 +9°C° 0 mm 2 m/s 747 mmHg 78%
    20:00 +9°C° 0 mm 2 m/s 747 mmHg 80%
    21:00 +9°C° 0 mm 2 m/s 748 mmHg 82%
    22:00 +8°C° 0 mm 2 m/s 748 mmHg 84%
    23:00 +9°C° 0 mm 1 m/s 748 mmHg 86%

    24 Novembre, Vendredi

    Heure Température Précipitation Vent Pression Humidité
    00:00 +8°C° 0 mm 1 m/s 748 mmHg 87%
    01:00 +8°C° 0 mm 1 m/s 748 mmHg 89%
    02:00 +8°C° 0 mm 1 m/s 748 mmHg 89%
    03:00 +7°C° 0 mm 1 m/s 748 mmHg 90%
    04:00 +7°C° 0 mm 1 m/s 748 mmHg 91%
    05:00 +7°C° 0 mm 1 m/s 748 mmHg 92%
    06:00 +6°C° 0 mm 1 m/s 749 mmHg 92%
    07:00 +5°C° 0 mm 0 m/s 749 mmHg 92%
    08:00 +6°C° 0 mm 0 m/s 749 mmHg 87%
    09:00 +7°C° 0 mm 0 m/s 749 mmHg 82%
    10:00 +10°C° 0 mm 1 m/s 750 mmHg 77%
    11:00 +11°C° 0 mm 1 m/s 749 mmHg 73%
    12:00 +12°C° 0 mm 1 m/s 749 mmHg 69%
    13:00 +13°C° 0 mm 1 m/s 749 mmHg 64%
    14:00 +12°C° 0 mm 1 m/s 749 mmHg 67%
    15:00 +11°C° 0 mm 1 m/s 748 mmHg 71%
    16:00 +9°C° 0 mm 0 m/s 748 mmHg 74%
    17:00 +10°C° 0 mm 1 m/s 749 mmHg 77%
    18:00 +9°C° 0 mm 1 m/s 749 mmHg 80%
    19:00 +9°C° 0 mm 1 m/s 749 mmHg 82%
    20:00 +8°C° 0 mm 1 m/s 749 mmHg 83%
    21:00 +8°C° 0 mm 1 m/s 749 mmHg 85%
    22:00 +8°C° 0 mm 1 m/s 749 mmHg 86%
    23:00 +6°C° 0 mm 2 m/s 749 mmHg 86%

    25 Novembre, Samedi

    Heure Température Précipitation Vent Pression Humidité
    00:00 +6°C° 0 mm 2 m/s 749 mmHg 86%
    01:00 +6°C° 0 mm 2 m/s 749 mmHg 87%
    02:00 +6°C° 0 mm 2 m/s 749 mmHg 87%
    03:00 +6°C° 0 mm 1 m/s 749 mmHg 87%
    04:00 +6°C° 0 mm 1 m/s 749 mmHg 87%
    05:00 +5°C° 0 mm 2 m/s 749 mmHg 87%
    06:00 +5°C° 0 mm 2 m/s 749 mmHg 88%
    07:00 +4°C° 0 mm 2 m/s 749 mmHg 88%
    08:00 +6°C° 0 mm 2 m/s 748 mmHg 83%
    09:00 +7°C° 0 mm 2 m/s 748 mmHg 77%
    10:00 +8°C° 0 mm 2 m/s 748 mmHg 72%
    11:00 +9°C° 0 mm 2 m/s 748 mmHg 68%
    12:00 +10°C° 0 mm 2 m/s 747 mmHg 64%
    13:00 +12°C° 0 mm 2 m/s 747 mmHg 59%
    14:00 +12°C° 0 mm 2 m/s 747 mmHg 63%
    15:00 +10°C° 0 mm 2 m/s 747 mmHg 66%
    16:00 +9°C° 0 mm 2 m/s 747 mmHg 69%
    17:00 +9°C° 0 mm 2 m/s 747 mmHg 71%
    18:00 +9°C° 0 mm 3 m/s 747 mmHg 73%
    19:00 +8°C° 0 mm 3 m/s 747 mmHg 75%
    20:00 +8°C° 0 mm 3 m/s 747 mmHg 76%
    21:00 +8°C° 0 mm 3 m/s 747 mmHg 78%
    22:00 +7°C° 0 mm 4 m/s 747 mmHg 79%
    23:00 +7°C° 0 mm 4 m/s 747 mmHg 80%
    Voir plus